| time (UTC) | temp F | wind direction | speed knots | gust knots | rain 1hr in | rain 24hr in | rain mn in | humidity % | barometer mb |
| 20260504193105 | 68 | 241 | 6.1 | 0.0 | 0.00 | 0.00 | 0.00 | 42 | 1004.8 |
| 20260504191850 | 68 | 248 | 7.0 | 0.0 | 0.00 | 0.00 | 0.00 | 42 | 1004.4 |
| 20260504191532 | 67 | 242 | 7.0 | 0.0 | 0.00 | 0.00 | 0.00 | 48 | 1004.9 |
| 20260504190350 | 67 | 257 | 7.0 | 0.0 | 0.00 | 0.00 | 0.00 | 45 | 1004.6 |
| 20260504190105 | 66 | 244 | 7.0 | 0.0 | 0.00 | 0.00 | 0.00 | 47 | 1005.0 |
| 20260504184844 | 65 | 252 | 3.5 | 0.0 | 0.00 | 0.00 | 0.00 | 47 | 1004.8 |
| 20260504184556 | 64 | 300 | 3.5 | 0.0 | 0.00 | 0.00 | 0.00 | 47 | 1005.4 |
| 20260504183345 | 64 | 241 | 4.3 | 0.0 | 0.00 | 0.00 | 0.00 | 49 | 1004.9 |
| 20260504183042 | 63 | 236 | 4.3 | 0.0 | 0.00 | 0.00 | 0.00 | 48 | 1005.4 |
| 20260504181840 | 64 | 273 | 4.3 | 0.0 | 0.00 | 0.00 | 0.00 | 48 | 1004.8 |
| 20260504181545 | 64 | 240 | 4.3 | 0.0 | 0.00 | 0.00 | 0.00 | 48 | 1005.4 |
| 20260504180339 | 64 | 261 | 5.2 | 0.0 | 0.00 | 0.00 | 0.00 | 49 | 1004.9 |
| 20260504180044 | 63 | 223 | 5.2 | 0.0 | 0.00 | 0.00 | 0.00 | 50 | 1005.5 |
| 20260504174840 | 63 | 223 | 5.2 | 0.0 | 0.00 | 0.00 | 0.00 | 49 | 1005.0 |
| 20260504174612 | 62 | 281 | 5.2 | 0.0 | 0.00 | 0.00 | 0.00 | 49 | 1005.5 |
| 20260504173356 | 62 | 215 | 5.2 | 0.0 | 0.00 | 0.00 | 0.00 | 49 | 1005.0 |
| 20260504173058 | 62 | 224 | 5.2 | 0.0 | 0.00 | 0.00 | 0.00 | 49 | 1005.6 |
| 20260504171853 | 62 | 218 | 6.1 | 0.0 | 0.00 | 0.00 | 0.00 | 49 | 1005.1 |
| 20260504171536 | 61 | 239 | 6.1 | 0.0 | 0.00 | 0.00 | 0.00 | 48 | 1005.8 |
| 20260504170356 | 63 | 173 | 5.2 | 0.0 | 0.00 | 0.00 | 0.00 | 48 | 1005.1 |
| 20260504150348 | 62 | 219 | 7.0 | 0.0 | 0.00 | 0.00 | 0.00 | 48 | 1005.8 |
| 20260504140341 | 58 | 196 | 5.2 | 0.0 | 0.00 | 0.00 | 0.00 | 55 | 1006.3 |
| 20260504130339 | 54 | 207 | 3.5 | 0.0 | 0.00 | 0.00 | 0.00 | 63 | 1007.0 |
| 20260504110117 | 41 | 133 | 0.0 | 0.0 | 0.00 | 0.00 | 0.00 | 80 | 1008.4 |
| 20260504090105 | 41 | 113 | 0.0 | 0.0 | 0.00 | 0.00 | 0.00 | 73 | 1008.2 |
| 20260504081546 | 41 | 113 | 0.9 | 0.0 | 0.00 | 0.00 | 0.00 | 72 | 1008.5 |
| 20260504080344 | 42 | 113 | 0.9 | 0.0 | 0.00 | 0.00 | 0.00 | 72 | 1007.7 |
| 20260504070345 | 42 | 243 | 1.7 | 0.0 | 0.00 | 0.00 | 0.00 | 69 | 1007.6 |
| 20260504050342 | 39 | 224 | 1.7 | 0.0 | 0.00 | 0.00 | 0.00 | 70 | 1007.4 |
| 20260504044839 | 39 | 234 | 1.7 | 0.0 | 0.00 | 0.00 | 0.00 | 70 | 1007.5 |
| 20260504044604 | 38 | 234 | 1.7 | 0.0 | 0.00 | 0.00 | 0.00 | 70 | 1008.4 |
| 20260504043356 | 39 | 241 | 1.7 | 0.0 | 0.00 | 0.00 | 0.00 | 71 | 1007.4 |
| 20260504043100 | 38 | 235 | 1.7 | 0.0 | 0.00 | 0.00 | 0.00 | 71 | 1008.4 |
| 20260504041857 | 38 | 222 | 0.9 | 0.0 | 0.00 | 0.00 | 0.00 | 71 | 1007.6 |
| 20260504041540 | 38 | 222 | 0.9 | 0.0 | 0.00 | 0.00 | 0.00 | 71 | 1008.5 |
| 20260504040338 | 39 | 222 | 0.9 | 0.0 | 0.00 | 0.00 | 0.00 | 71 | 1007.4 |
| 20260504034853 | 39 | 224 | 0.0 | 0.0 | 0.00 | 0.00 | 0.01 | 70 | 1007.3 |
| 20260504034520 | 39 | 224 | 0.0 | 0.0 | 0.00 | 0.00 | 0.01 | 70 | 1008.2 |
| 20260504033104 | 39 | 224 | 1.7 | 0.0 | 0.00 | 0.00 | 0.01 | 69 | 1008.2 |
| 20260504031851 | 40 | 207 | 0.9 | 0.0 | 0.00 | 0.00 | 0.01 | 69 | 1007.3 |
| 20260504031534 | 39 | 207 | 0.9 | 0.0 | 0.00 | 0.00 | 0.01 | 69 | 1008.1 |
| 20260504030351 | 40 | 205 | 0.9 | 0.0 | 0.00 | 0.00 | 0.01 | 70 | 1007.1 |
| 20260504030012 | 39 | 205 | 0.9 | 0.0 | 0.00 | 0.00 | 0.01 | 69 | 1008.1 |
| 20260504024549 | 40 | 205 | 1.7 | 0.0 | 0.00 | 0.00 | 0.01 | 67 | 1007.9 |
| 20260504023347 | 40 | 201 | 1.7 | 0.0 | 0.00 | 0.00 | 0.01 | 67 | 1007.3 |
| 20260504023045 | 40 | 201 | 1.7 | 0.0 | 0.00 | 0.00 | 0.01 | 67 | 1008.2 |
| 20260504021843 | 41 | 201 | 1.7 | 0.0 | 0.00 | 0.00 | 0.01 | 66 | 1007.4 |
| 20260504021544 | 41 | 201 | 1.7 | 0.0 | 0.00 | 0.00 | 0.01 | 66 | 1008.2 |
| 20260504020347 | 41 | 212 | 1.7 | 0.0 | 0.00 | 0.00 | 0.01 | 64 | 1007.4 |
| 20260504020008 | 41 | 211 | 1.7 | 0.0 | 0.00 | 0.00 | 0.01 | 64 | 1008.3 |
| 20260504014542 | 41 | 213 | 0.9 | 0.0 | 0.00 | 0.00 | 0.01 | 63 | 1008.1 |
| 20260504013340 | 42 | 213 | 0.9 | 0.0 | 0.00 | 0.00 | 0.01 | 64 | 1007.2 |
| 20260504013043 | 42 | 213 | 0.9 | 0.0 | 0.00 | 0.00 | 0.01 | 64 | 1007.9 |
| 20260504011838 | 42 | 214 | 0.9 | 0.0 | 0.00 | 0.00 | 0.01 | 62 | 1007.8 |
| 20260504011545 | 42 | 214 | 0.9 | 0.0 | 0.00 | 0.00 | 0.01 | 62 | 1007.9 |
| 20260504010359 | 43 | 218 | 1.7 | 0.0 | 0.00 | 0.00 | 0.01 | 62 | 1006.9 |
| 20260504010015 | 42 | 218 | 1.7 | 0.0 | 0.00 | 0.00 | 0.01 | 63 | 1007.9 |
| 20260504004557 | 43 | 211 | 1.7 | 0.0 | 0.00 | 0.00 | 0.01 | 60 | 1007.7 |
| 20260504003355 | 43 | 240 | 1.7 | 0.0 | 0.00 | 0.00 | 0.01 | 61 | 1006.6 |
| 20260504003014 | 43 | 198 | 1.7 | 0.0 | 0.00 | 0.00 | 0.01 | 61 | 1007.5 |
| 20260504001541 | 43 | 197 | 0.9 | 0.0 | 0.00 | 0.00 | 0.01 | 61 | 1007.2 |
| 20260504000354 | 44 | 224 | 1.7 | 0.0 | 0.00 | 0.00 | 0.01 | 59 | 1006.3 |
| 20260504000058 | 44 | 231 | 1.7 | 0.0 | 0.00 | 0.00 | 0.01 | 59 | 1007.0 |
| 20260503234855 | 45 | 223 | 1.7 | 0.0 | 0.00 | 0.00 | 0.01 | 58 | 1006.2 |
| 20260503234513 | 45 | 229 | 1.7 | 0.0 | 0.00 | 0.00 | 0.01 | 58 | 1007.0 |
| 20260503233053 | 45 | 213 | 1.7 | 0.0 | 0.00 | 0.00 | 0.01 | 56 | 1006.9 |
| 20260503231851 | 46 | 167 | 1.7 | 0.0 | 0.00 | 0.00 | 0.01 | 55 | 1006.1 |
| 20260503231535 | 46 | 210 | 1.7 | 0.0 | 0.00 | 0.00 | 0.01 | 56 | 1006.9 |
| 20260503230356 | 46 | 229 | 2.6 | 0.0 | 0.00 | 0.00 | 0.01 | 55 | 1005.9 |
| 20260503230055 | 46 | 219 | 3.5 | 0.0 | 0.00 | 0.00 | 0.01 | 54 | 1006.7 |
| 20260503224853 | 47 | 182 | 3.5 | 0.0 | 0.00 | 0.00 | 0.01 | 53 | 1005.7 |
| 20260503224551 | 47 | 184 | 3.5 | 0.0 | 0.00 | 0.00 | 0.01 | 53 | 1006.6 |
| 20260503223349 | 47 | 176 | 3.5 | 0.0 | 0.00 | 0.00 | 0.01 | 52 | 1005.6 |
| 20260503223053 | 47 | 161 | 3.5 | 0.0 | 0.00 | 0.00 | 0.01 | 52 | 1006.4 |
| 20260503221850 | 48 | 182 | 2.6 | 0.0 | 0.00 | 0.00 | 0.01 | 53 | 1005.5 |
| 20260503221539 | 47 | 19 | 2.6 | 0.0 | 0.00 | 0.00 | 0.01 | 52 | 1006.3 |
| 20260503220350 | 48 | 232 | 3.5 | 0.0 | 0.00 | 0.00 | 0.01 | 52 | 1005.4 |
| 20260503220108 | 47 | 188 | 3.5 | 0.0 | 0.00 | 0.00 | 0.01 | 52 | 1006.1 |
| 20260503214852 | 49 | 222 | 2.6 | 0.0 | 0.00 | 0.00 | 0.01 | 51 | 1005.4 |
| 20260503214550 | 49 | 216 | 2.6 | 0.0 | 0.00 | 0.00 | 0.01 | 51 | 1006.0 |
| 20260503213348 | 48 | 277 | 3.5 | 0.0 | 0.00 | 0.00 | 0.01 | 51 | 1005.1 |
| 20260503213049 | 48 | 267 | 3.5 | 0.0 | 0.00 | 0.00 | 0.01 | 52 | 1005.9 |
| 20260503211844 | 47 | 213 | 3.5 | 0.0 | 0.00 | 0.00 | 0.01 | 52 | 1005.1 |
| 20260503211601 | 47 | 277 | 3.5 | 0.0 | 0.00 | 0.00 | 0.01 | 51 | 1006.1 |
| 20260503210347 | 48 | 208 | 4.3 | 0.0 | 0.00 | 0.00 | 0.01 | 50 | 1004.9 |
| 20260503210049 | 48 | 175 | 4.3 | 0.0 | 0.00 | 0.00 | 0.01 | 50 | 1005.8 |
| 20260503204845 | 48 | 175 | 3.5 | 0.0 | 0.00 | 0.00 | 0.01 | 52 | 1004.8 |
| 20260503204542 | 47 | 256 | 3.5 | 0.0 | 0.00 | 0.00 | 0.01 | 50 | 1005.4 |
| 20260503203340 | 48 | 180 | 4.3 | 0.0 | 0.00 | 0.00 | 0.01 | 51 | 1004.6 |
| 20260503203043 | 48 | 140 | 4.3 | 0.0 | 0.00 | 0.00 | 0.01 | 51 | 1005.4 |
| 20260503201842 | 48 | 256 | 4.3 | 0.0 | 0.00 | 0.00 | 0.01 | 51 | 1004.6 |
| 20260503201545 | 48 | 331 | 4.3 | 0.0 | 0.00 | 0.00 | 0.01 | 50 | 1005.4 |
| 20260503200003 | 47 | 45 | 2.6 | 0.0 | 0.00 | 0.00 | 0.01 | 54 | 1005.5 |
| 20260503194549 | 47 | 117 | 3.5 | 0.0 | 0.00 | 0.00 | 0.01 | 54 | 1005.5 |
| 20260503193345 | 48 | 337 | 2.6 | 0.0 | 0.00 | 0.00 | 0.01 | 54 | 1004.6 |